FW3213 Weather Reports


time (UTC)temp
F
wind
direction
speed
knots
gust
knots
rain 1hr
in
rain 24hr
in
rain mn
in
humidity
%
barometer
mb
20210801190128 62 112 0.9 2.6 0.00 0.57 0.00 46 1054.7
20210801190031 62 112 0.9 2.6 0.00 0.57 0.00 46 1054.6
20210801185930 62 144 1.7 2.6 0.00 0.57 0.00 45 1054.6
20210801184927 62 202 0.9 1.7 0.00 0.59 0.00 45 1054.9
20210801184829 61 202 0.9 1.7 0.00 0.59 0.00 46 1054.9
20210801184730 61 125 0.0 0.9 0.00 0.59 0.00 46 1054.9
20210801183730 60 131 2.6 4.3 0.00 0.61 0.00 53 1055.1
20210801182744 58 112 1.7 3.5 0.00 0.63 0.00 55 1055.1
20210801181729 59 112 0.0 0.9 0.00 0.63 0.00 55 1055.1
20210801180827 58 120 0.0 1.7 0.00 0.64 0.00 62 1055.5
20210801175831 58 112 1.7 3.5 0.00 0.67 0.00 59 1055.4
20210801174927 59 297 1.7 3.5 0.00 0.68 0.00 63 1055.5
20210801173928 58 175 0.9 2.6 0.00 0.69 0.00 69 1055.7
20210801172927 57 202 0.9 1.7 0.00 0.70 0.00 72 1055.6
20210801171928 56 135 0.0 0.9 0.00 0.70 0.00 72 1055.4
20210801170928 56 135 0.0 1.7 0.00 0.70 0.00 74 1055.7
20210801165928 55 146 0.9 1.7 0.00 0.70 0.00 74 1055.7
20210801164944 55 112 0.9 3.5 0.00 0.70 0.00 79 1055.8
20210801163928 54 135 0.0 0.9 0.00 0.70 0.00 83 1055.7
20210801162929 54 135 0.0 0.9 0.00 0.70 0.00 84 1055.5
20210801161928 54 135 0.0 0.0 0.00 0.70 0.00 85 1055.5
20210801160929 54 135 0.0 0.0 0.00 0.70 0.00 86 1055.6
20210801155929 53 135 0.0 0.0 0.00 0.70 0.00 87 1055.5
20210801154928 53 135 0.9 1.7 0.00 0.70 0.00 89 1055.4
20210801153947 52 225 0.0 0.0 0.00 0.70 0.00 91 1055.2
20210801153028 52 225 0.0 0.0 0.00 0.70 0.00 93 1055.3
20210801152028 51 225 0.0 0.0 0.00 0.70 0.00 94 1055.1
20210801151028 51 247 0.0 0.9 0.00 0.70 0.00 95 1055.1
20210801150044 50 292 0.0 0.9 0.00 0.70 0.00 95 1055.3
20210801145928 50 292 0.0 0.9 0.00 0.70 0.00 95 1055.3
20210801145830 50 292 0.0 0.9 0.00 0.70 0.00 95 1055.2
20210801144828 50 292 0.0 0.9 0.00 0.70 0.00 95 1055.2
20210801144728 50 292 0.0 0.9 0.00 0.70 0.00 95 1055.2
20210801144643 50 292 0.0 0.9 0.00 0.70 0.00 95 1055.2
20210801143645 49 292 0.0 0.9 0.00 0.70 0.00 95 1055.3
20210801142729 49 292 0.0 0.0 0.00 0.70 0.00 95 1055.4
20210801141827 49 292 0.0 0.0 0.00 0.70 0.00 95 1055.4
20210801141728 49 292 0.0 0.0 0.00 0.70 0.00 95 1055.4
20210801141643 49 292 0.0 0.0 0.00 0.70 0.00 95 1055.3
20210801140645 48 292 0.0 0.0 0.00 0.70 0.00 95 1055.3
20210801135628 48 292 0.0 0.0 0.00 0.70 0.00 96 1055.3
20210801134628 48 292 0.0 0.0 0.00 0.70 0.00 96 1055.1
20210801133728 48 292 0.0 0.0 0.00 0.70 0.00 96 1055.1
20210801133645 48 292 0.0 0.0 0.00 0.70 0.00 96 1055.0
20210801132629 48 292 0.0 0.0 0.00 0.70 0.00 95 1055.0
20210801131728 48 292 0.0 0.0 0.00 0.70 0.00 95 1054.7
20210801131629 48 292 0.0 0.0 0.00 0.70 0.00 96 1054.7
20210801130728 47 292 0.0 0.0 0.00 0.70 0.00 96 1054.6
20210801125743 47 292 0.0 0.0 0.00 0.70 0.00 96 1054.4
20210801124827 47 292 0.0 0.0 0.00 0.70 0.00 96 1054.5
20210801123844 47 292 0.0 0.0 0.00 0.70 0.00 96 1054.5
20210801122927 47 292 0.0 0.0 0.00 0.70 0.00 96 1054.5
20210801121929 47 292 0.0 0.0 0.00 0.70 0.00 96 1054.5
20210801120945 47 292 0.0 0.0 0.00 0.70 0.00 96 1054.5
20210801115945 47 292 0.0 0.0 0.00 0.70 0.00 96 1054.4
20210801114943 47 292 0.0 0.0 0.00 0.70 0.00 96 1054.1
20210801113928 47 292 0.0 0.0 0.00 0.70 0.00 95 1054.1
20210801112928 47 292 0.0 0.0 0.00 0.70 0.00 96 1054.1
20210801112845 47 292 0.0 0.0 0.00 0.70 0.00 96 1054.1
20210801111830 47 292 0.0 0.0 0.00 0.70 0.00 96 1054.1
20210801110928 47 292 0.0 0.9 0.00 0.70 0.00 96 1054.1
20210801105944 47 292 0.0 0.0 0.00 0.70 0.00 96 1054.1
20210801105827 47 292 0.0 0.0 0.00 0.70 0.00 96 1054.0
20210801104827 47 292 0.9 0.9 0.00 0.70 0.00 96 1054.2
20210801103845 47 292 0.0 0.0 0.00 0.70 0.00 96 1054.1
20210801102928 47 292 0.0 0.0 0.00 0.70 0.00 96 1053.9
20210801101943 47 292 0.0 0.0 0.00 0.70 0.00 96 1053.9
20210801101027 47 292 0.0 0.0 0.00 0.70 0.00 96 1054.0
20210801100028 47 292 0.0 0.9 0.00 0.70 0.00 96 1054.0
20210801095046 47 292 0.9 0.9 0.00 0.70 0.00 96 1053.9
20210801094127 47 292 0.0 0.0 0.00 0.70 0.00 96 1054.0
20210801094026 47 292 0.0 0.0 0.00 0.70 0.00 95 1054.0
20210801093929 47 292 0.0 0.0 0.00 0.70 0.00 95 1054.0
20210801093027 47 292 0.0 0.0 0.00 0.70 0.00 96 1054.1
20210801092027 47 292 0.0 0.0 0.00 0.70 0.00 96 1054.1
20210801091931 47 292 0.0 0.0 0.00 0.70 0.00 96 1054.0
20210801090929 47 292 0.0 0.0 0.00 0.70 0.00 96 1053.8
20210801085928 48 292 0.0 0.0 0.00 0.70 0.00 96 1053.9
20210801085026 48 292 0.0 0.0 0.00 0.70 0.00 96 1053.7
20210801084928 48 292 0.0 0.0 0.00 0.70 0.00 96 1053.8
20210801084845 48 292 0.0 0.0 0.00 0.70 0.00 96 1053.8
20210801083829 48 292 0.0 0.0 0.00 0.70 0.00 95 1053.8
20210801083728 48 292 0.0 0.0 0.00 0.70 0.00 96 1053.7
20210801082728 48 112 0.0 0.0 0.00 0.70 0.00 96 1053.7
20210801081728 48 112 0.0 0.0 0.00 0.70 0.00 96 1053.8
20210801080828 48 112 0.0 0.0 0.00 0.70 0.00 96 1054.3
20210801080727 48 112 0.0 0.0 0.00 0.70 0.00 96 1054.3
20210801080627 48 112 0.0 0.0 0.00 0.70 0.00 96 1054.3
20210801075628 48 112 0.0 0.0 0.00 0.70 0.00 96 1054.4
20210801074645 48 112 0.0 0.9 0.00 0.70 0.00 96 1054.6
20210801073729 48 315 0.0 0.9 0.00 0.70 0.00 96 1054.7
20210801072827 48 315 2.6 2.6 0.00 0.70 0.00 96 1054.8
20210801071828 48 270 0.0 0.0 0.00 0.70 0.00 96 1055.1
20210801070828 48 270 0.0 0.0 0.00 0.70 0.00 96 1055.1
20210801070727 48 270 0.0 0.0 0.00 0.70 0.00 96 1055.1
20210801070642 48 270 0.0 0.0 0.00 0.70 0.00 96 1055.1
20210801065629 48 270 0.0 0.0 0.00 0.70 0.00 96 1055.1
20210801065527 48 270 0.0 0.0 0.00 0.70 0.00 96 1055.1
20210801065442 48 270 0.0 0.0 0.00 0.70 0.00 96 1055.1
20210801064426 48 270 0.0 0.0 0.00 0.70 0.00 96 1055.3
20210801064328 49 270 0.0 0.0 0.00 0.70 0.00 96 1055.3
20210801064227 49 270 0.0 0.0 0.00 0.70 0.00 96 1055.3
20210801063327 49 270 0.0 0.0 0.01 0.70 0.00 96 1055.2
20210801062344 49 270 0.0 0.0 0.01 0.70 0.00 96 1055.2
20210801061428 48 270 0.0 0.0 0.01 0.70 0.00 96 1055.1
20210801061326 48 270 0.0 0.0 0.01 0.70 0.00 96 1055.1
20210801060328 49 270 0.0 0.0 0.01 0.70 0.00 96 1055.1
20210801055413 49 247 0.0 0.0 0.02 0.70 0.70 96 1055.2
20210801054412 50 112 0.0 0.0 0.02 0.71 0.70 96 1055.2
20210801054313 50 112 0.0 0.0 0.02 0.71 0.70 96 1055.1
20210801054214 50 112 0.0 0.0 0.02 0.71 0.70 96 1055.1
20210801053215 51 112 1.7 2.6 0.02 0.70 0.69 96 1055.0
20210801053113 51 112 1.7 1.7 0.02 0.70 0.69 96 1054.9
20210801052128 51 337 0.0 0.0 0.03 0.70 0.69 96 1054.8
20210801051112 51 337 0.0 0.0 0.03 0.70 0.69 96 1054.9
20210801050211 51 337 0.0 0.0 0.04 0.70 0.69 96 1054.9
20210801050112 51 337 0.0 0.0 0.04 0.71 0.69 96 1054.9
20210801045130 51 337 0.0 0.0 0.04 0.70 0.68 95 1054.8
20210801044211 51 337 0.0 0.0 0.05 0.70 0.68 96 1054.8
20210801043212 51 337 0.0 0.0 0.05 0.69 0.67 96 1054.9
20210801043130 51 337 0.0 0.0 0.05 0.69 0.67 96 1054.9
20210801042114 51 337 0.0 0.0 0.04 0.69 0.66 96 1054.9
20210801042014 51 337 0.0 0.0 0.04 0.70 0.66 96 1054.9
20210801041914 51 337 0.0 0.0 0.04 0.70 0.66 95 1054.9
20210801040913 51 337 0.0 0.0 0.04 0.72 0.66 96 1054.8
20210801040011 51 337 0.0 0.0 0.03 0.74 0.65 96 1054.9
20210801035028 51 337 0.0 0.0 0.02 0.74 0.64 96 1054.9
20210801034913 51 337 0.0 0.0 0.02 0.74 0.64 96 1054.8
20210801033913 51 337 0.0 0.0 0.01 0.75 0.63 96 1055.0
20210801032914 52 337 0.0 0.0 0.00 0.75 0.62 96 1054.7
20210801032011 52 337 0.0 0.0 0.00 0.76 0.62 96 1054.7
20210801031013 52 337 0.0 0.0 0.00 0.77 0.62 96 1054.5
20210801030011 52 337 0.0 0.0 0.00 0.80 0.62 96 1054.4
20210801025014 52 337 0.0 0.0 0.00 0.85 0.62 96 1054.3
20210801024912 52 337 0.0 0.0 0.00 0.85 0.62 95 1054.3
20210801024818 52 337 0.0 0.0 0.00 0.85 0.62 95 1054.4
20210801023914 52 337 0.0 0.0 0.00 0.89 0.62 96 1054.2
20210801022913 53 337 0.0 0.0 0.00 0.91 0.62 95 1054.1
20210801021913 53 337 0.0 0.0 0.00 0.91 0.62 95 1054.0
20210801021812 53 337 0.0 0.0 0.00 0.91 0.62 95 1054.0
20210801020911 53 337 0.0 0.0 0.00 0.91 0.62 95 1054.0
20210801015912 53 337 0.0 0.0 0.01 0.91 0.62 95 1054.0
20210801015012 53 337 0.0 0.0 0.01 0.91 0.62 95 1053.8
20210801014012 53 337 0.0 0.0 0.01 0.91 0.62 95 1053.8
20210801013012 53 337 0.0 0.0 0.02 0.91 0.62 95 1053.8
20210801012031 53 337 0.0 0.0 0.03 0.91 0.62 95 1053.8
20210801011928 53 337 0.0 0.0 0.03 0.91 0.62 95 1053.8
20210801011012 53 337 0.0 0.0 0.03 0.91 0.62 95 1053.8
20210801010011 53 337 0.0 0.0 0.04 0.90 0.61 95 1054.0
20210801005013 53 337 0.0 0.0 0.06 0.90 0.61 95 1053.9
20210801004911 53 337 0.0 0.0 0.06 0.90 0.61 95 1053.8
20210801004829 53 337 0.0 0.0 0.06 0.90 0.61 95 1053.8
20210801003912 53 337 0.0 0.0 0.08 0.90 0.61 95 1053.8
20210801003827 53 337 0.0 0.0 0.08 0.90 0.61 95 1053.8
20210801003714 53 337 0.0 0.0 0.08 0.90 0.61 94 1053.8
20210801002714 53 337 0.0 0.0 0.10 0.89 0.60 94 1053.7
20210801001711 53 337 0.0 0.0 0.12 0.88 0.59 94 1053.6
20210801000713 53 337 0.0 0.0 0.15 0.87 0.57 94 1053.7
20210801000628 53 337 0.0 0.0 0.15 0.87 0.57 94 1053.7
20210731235711 53 337 0.0 0.0 0.19 0.85 0.56 94 1053.7
20210731234727 53 337 0.0 0.0 0.20 0.84 0.54 94 1053.7
20210731233812 53 315 0.0 0.0 0.18 0.82 0.53 94 1053.8
20210731233727 53 315 0.0 0.0 0.18 0.82 0.53 94 1053.8
20210731232712 53 315 0.0 0.0 0.15 0.79 0.50 94 1053.8
20210731231714 53 315 0.0 0.0 0.12 0.76 0.46 94 1053.8
20210731230811 53 315 0.0 0.0 0.09 0.73 0.43 92 1053.9
20210731230711 53 315 0.0 0.0 0.08 0.72 0.43 93 1053.9
20210731225713 54 315 0.0 0.0 0.02 0.66 0.37 93 1053.8
20210731224729 54 315 0.0 0.0 0.00 0.64 0.35 92 1053.8
20210731223812 54 315 0.0 0.0 0.00 0.64 0.35 91 1053.9
20210731223713 54 315 0.0 0.0 0.00 0.64 0.35 91 1053.8
20210731223614 54 315 0.0 0.0 0.00 0.64 0.35 91 1053.8
20210731222611 54 292 0.0 0.0 0.00 0.64 0.35 90 1053.8
20210731222513 54 292 0.0 0.9 0.00 0.64 0.35 89 1053.8
20210731221612 55 202 0.0 0.0 0.00 0.64 0.35 88 1053.8
20210731220611 55 180 0.0 0.0 0.00 0.64 0.35 86 1053.7
20210731215613 56 180 0.0 0.0 0.00 0.64 0.35 86 1053.7
20210731215514 56 180 0.0 0.0 0.00 0.64 0.35 86 1053.7
20210731214528 57 168 0.0 0.9 0.00 0.64 0.35 86 1053.7
20210731213527 57 135 0.0 0.9 0.00 0.64 0.35 86 1053.4
20210731212612 58 177 0.9 1.7 0.00 0.64 0.35 87 1053.2
20210731211612 59 149 0.0 0.9 0.01 0.64 0.35 88 1053.2
20210731210611 59 260 0.0 0.9 0.02 0.64 0.35 88 1053.2
20210731205612 59 202 0.0 0.0 0.04 0.64 0.35 90 1053.3
20210731205527 59 202 0.0 0.0 0.04 0.64 0.35 90 1053.3
20210731204612 58 135 0.9 3.5 0.07 0.64 0.35 93 1053.5
20210731203612 57 135 0.9 1.7 0.10 0.64 0.35 94 1053.4
20210731202612 56 177 1.7 2.6 0.14 0.64 0.35 94 1053.7
20210731201614 56 157 0.0 0.0 0.16 0.63 0.34 94 1053.6
20210731200612 55 157 0.0 0.0 0.18 0.62 0.33 93 1053.7
20210731195711 55 157 0.0 0.0 0.20 0.61 0.31 93 1053.6
20210731194713 55 135 0.0 0.9 0.17 0.57 0.28 93 1053.8
20210731193810 55 135 0.0 0.0 0.16 0.54 0.25 92 1053.7
20210731192827 55 135 0.0 0.0 0.15 0.51 0.22 92 1053.9
20210731191813 55 135 0.0 0.9 0.11 0.47 0.18 91 1053.8
20210731190828 55 112 0.0 0.9 0.09 0.44 0.15 92 1053.8